Terug naar catalogus

STARLINK-5029

ActiefCommunicatieVLEO
NORAD 53887·PAYLOAD·🇺🇸 United States

Gelanceerd Sep 24, 2022 vanaf Cape Canaveral Space Force Station

Loading…

Volgende Passages (komende 24 uur)

TLE

VersSource: CelesTrak SupGP

Epoch: Sep 15, 2026, 01:11 UTC

1 53887C 22119B   26258.04979167 -.00023128  00000+0 -74382-3 0  2584
2 53887  53.1578 188.1976 0001359  91.7463 355.8337 15.31709802    11

Volg STARLINK-5029 in realtime met AllMySat

Download on the App Store